Regional Weather Roundup
Issued by NWS Green Bay, WI

Home | Current Version | Previous Version | Graphics & Text | Print | Product List | Glossary Off
Versions: 1 2 3 4 5 6 7 8 9 10 11 12 13 14 15 16 17 18 19 20 21 22 23 24 25 26 27 28 29 30 31 32 33 34 35 36 37 38 39 40 41 42 43 44 45 46 47 48 49 50

000
ASUS43 KGRB 232010
RWRGRB

NORTH-CENTRAL AND NORTHEAST WISCONSIN REGIONAL WEATHER ROUNDUP
NATIONAL WEATHER SERVICE GREEN BAY WI
300 PM CDT TUE SEP 23 2014

WIZ005-009-010>012-018-019-232100-
NORTH CENTRAL WISCONSIN

CITY           SKY/WX    TMP DP  RH WIND       PRES   REMARKS
IRONWOOD       SUNNY     73  48  40 S8G16     30.18F
MANITOWISH WTR SUNNY     72  49  43 SW8       30.24S
ARBOR VITAE    SUNNY     72  48  42 S8        30.24F
EAGLE RIVER    SUNNY     72  44  36 SW5       30.24F
LAND O LAKES   SUNNY     73  43  34 SW6       30.25S
RHINELANDER    SUNNY     72  48  42 S8        30.26F
PHILLIPS       MOSUNNY   72  50  45 SW8       30.23F
ANTIGO         SUNNY     71  51  48 SW8       30.27F
TOMAHAWK       SUNNY     72  49  43 CALM      30.25F
MERRILL        SUNNY     73  52  47 SW6       30.25F
$$

WIZ013-073-232100-
NORTHEAST WISCONSIN

CITY           SKY/WX    TMP DP  RH WIND       PRES   REMARKS
IRON MOUNTAIN  SUNNY     76  51  41 SW5       30.23F
MARINETTE      SUNNY     72  55  56 S10G17    30.25S
OCONTO         SUNNY     72  55  55 S6        30.25F
$$

WIZ017-030-035>037-045-232100-
CENTRAL WISCONSIN

CITY           SKY/WX    TMP DP  RH WIND       PRES   REMARKS
MEDFORD        SUNNY     70  50  49 S10       30.26S
WAUSAU         SUNNY     72  49  44 S10       30.25F
MOSINEE        SUNNY     72  52  49 S10       30.27F
MARSHFIELD     SUNNY     73  50  44 S9        30.25F
WISC RAPIDS    SUNNY     73  50  44 S10       30.27F
STEVENS POINT  SUNNY     71  47  43 SW12      30.27F
WAUPACA        SUNNY     76  49  38 S5        30.26F
SHAWANO        SUNNY     75  50  40 CALM      30.26F
CLINTONVILLE   SUNNY     73  48  40 W7        30.26F
$$

WIZ038-039-048-051-232100-
FOX VALLEY

CITY           SKY/WX    TMP DP  RH WIND       PRES   REMARKS
NWS GREEN BAY  SUNNY     74  54  49 SW9       30.27F
APPLETON       SUNNY     72  50  46 SW7       30.28F
OSHKOSH        SUNNY     73  52  47 SW7       30.26F
FOND DU LAC    SUNNY     73  51  46 W6        30.27F
$$

WIZ022-050-052-232100-
EAST CENTRAL WISCONSIN

CITY           SKY/WX    TMP DP  RH WIND       PRES   REMARKS
STURGEON BAY   SUNNY     72  54  53 W10       30.28S
MANITOWOC      SUNNY     68  54  60 SE9       30.28F
SHEBOYGAN      SUNNY     75  50  41 SW8       30.28F
$$

LMZ563-521-522-541>543-232100-
LAKESHORE

STATION/POSITION TIME  TEMP    WIND        PRES    VSBY  WAVE
                       AIR SEA DIR/SP/G                  HT/PER
                 (UTC) (F)     (DEG/KT/KT) (MB)    (MI)  (FT/S)
SHEBOYGAN LKSHOR 2000   60 52  170/ 14/ 15 1025.7F
KEWAUNEE LKSHORE 2000   58     180/  9/ 10 1024.6R
NORTHPORT PIER   2000   66     130/  2/  4 1024.4S
N MID LAKE BUOY  2000   59 58  200/ 10/ 12 1025.1S         1/ 4
S GREEN BAY BUOY 2000   65     VRB  6/  6  1025.5F
CHAMBERS ISLAND  2000   69     170/  6/ 12 1024.7S
MENOMINEE LKSHOR 2000   67     170/ 12/ 14 1025.1S
$$



USA.gov is the U.S. government's official web portal to all federal, state and local government web resources and services.